[[{"header":{"parameterUnit":"m.s-1","parameterCategory":1,"la1":30.2991,"la2":30.254,"lo1":-89.0895,"lo2":-89.0444,"dx":0.0017,"dy":0.0017,"nx":28,"ny":28,"refTime":"2022-12-29T09:00:00:Z","depth":0,"parameterNumber":2,"parameterNumberName":"U-component_of_WINDS"},"data":[0,0,0,0,0,0,0,0,0,0,0,0,0,0,0,0,0,0,0,0,0,0,0,0,0,0,0,0,0,0,0,0,0,0,0,0,0,0,0,0,0,0,0,0,0,0,0,0,0,0,0,0,0,0,0,0,0,0,-5.2997,-5.2999,0,-5.3139,-5.314,-5.3142,-5.3132,-5.313,-5.3127,-5.3125,-5.3273,-5.3279,-5.3285,0,0,0,0,0,0,0,0,0,0,0,0,0,-5.2722,-5.2727,-5.2997,-5.2999,-5.3001,-5.3138,-5.314,-5.3142,-5.3132,-5.3129,-5.3127,-5.3125,-5.3271,-5.3278,-5.3285,0,0,0,0,0,0,0,0,0,0,0,0,0,-5.285,-5.2728,-5.2997,-5.3012,-5.3015,-5.3138,-5.3141,-5.3143,-5.3133,-5.3129,-5.3126,-5.3123,-5.3269,-5.3277,-5.3286,-5.3404,0,0,-5.3313,-5.3317,0,0,0,0,0,0,0,0,-5.2843,-5.286,-5.3008,-5.3011,-5.3015,-5.3114,-5.3097,-5.3231,-5.3133,-5.3088,-5.3125,-5.3122,-5.3223,-5.3235,-5.3269,-5.3411,-5.3418,-5.3314,-5.3319,-5.3323,-5.3326,0,0,0,0,0,0,0,-5.2834,-5.2854,-5.3053,-5.301,-5.3014,-5.3013,-5.3028,-5.3123,-5.3172,-5.3092,-5.3091,-5.3108,-5.3224,-5.3261,-5.3272,-5.342,-5.3314,-5.3322,-5.3327,-5.3331,-5.3667,-5.3671,0,0,0,0,0,0,-5.2821,-5.2847,-5.3049,-5.3057,-5.2919,-5.3021,-5.3037,-5.3086,-5.3171,-5.318,-5.3111,-5.3107,-5.3247,-5.3262,-5.3278,-5.3422,-5.3323,-5.3331,-5.3337,-5.3664,-5.3668,-5.3672,0,0,0,0,0,0,-5.2815,-5.2839,-5.3043,-5.2952,-5.2978,-5.3029,-5.3083,-5.309,-5.3126,-5.3185,-5.3194,-5.3138,-5.3245,-5.3265,-5.3373,-5.3426,-5.3335,-5.3343,-5.366,-5.3665,-5.367,-5.371,0,0,0,0,0,0,-5.2807,-5.2837,-5.2881,-5.2953,-5.2983,-5.3135,-5.3086,-5.3095,-5.3141,-5.3138,-5.3213,-5.3223,-5.3244,-5.336,-5.3382,-5.3437,-5.335,-5.3655,-5.3662,-5.3669,-5.3704,-5.3716,-5.3727,0,0,0,0,0,-5.2797,-5.2887,-5.2884,-5.2908,-5.3039,-5.3138,-5.3155,-5.3177,-5.3145,-5.3191,-5.3229,-5.322,-5.3418,-5.3371,-5.3396,-5.3454,-5.3652,-5.366,-5.3668,-5.3699,-5.3714,-5.3726,0,0,0,0,0,0,-5.2821,-5.2897,-5.2894,-5.3009,-5.3067,-5.3136,-5.3194,-5.3192,-5.326,-5.3254,-5.328,-5.3297,-5.3405,-5.3441,-5.3388,-5.3574,-5.3531,-5.3544,-5.3546,-5.356,-5.3571,-5.356,-5.3358,0,0,0,0,0,-5.284,-5.2912,-5.2975,-5.3071,-5.3101,-5.3142,-5.3186,-5.3198,-5.326,-5.3284,-5.333,-5.3391,-5.3467,-5.3516,-5.3589,-5.371,-5.3727,-5.3763,-5.3774,-5.3783,-5.3794,-5.3862,-5.3878,-5.3699,-5.3699,-5.3699,0,0,-5.2879,-5.2929,-5.2974,-5.3077,-5.3124,-5.3199,-5.3163,-5.3245,-5.3301,-5.3297,-5.3401,-5.3437,-5.3507,-5.3622,-5.3675,-5.3655,-5.3848,-5.3794,-5.38,-5.3806,-5.3872,-5.3889,-5.3904,-5.3705,-5.3704,-5.3703,0,0,-5.2988,-5.3034,-5.3119,-5.3166,-5.3237,-5.3264,-5.3285,-5.3355,-5.3378,-5.3483,-5.3482,-5.3551,-5.3681,-5.373,-5.3773,-5.3904,-5.3899,-5.3928,-5.3985,-5.4051,-5.4065,-5.4078,-5.4124,-5.414,-5.3939,-5.3939,-5.3939,0,-5.3028,-5.3141,-5.3163,-5.3245,-5.3291,-5.3291,-5.3378,-5.3423,-5.3515,-5.3547,-5.3523,-5.3687,-5.3734,-5.3861,-5.3893,-5.3928,-5.3953,-5.3918,-5.4061,-5.4074,-5.4086,-5.4131,-5.4148,-5.3942,-5.3941,-5.3941,-5.3941,0,-5.3186,-5.3265,-5.3326,-5.3413,-5.3466,-5.355,-5.3586,-5.3638,-5.3647,-5.3677,-5.3785,-5.3842,-5.3926,-5.3958,-5.3967,-5.4087,-5.4073,-5.4055,-5.4012,-5.4106,-5.4148,-5.4165,-5.3946,-5.3945,-5.3944,-5.3943,0,0,-5.3312,-5.3412,-5.3433,-5.3473,-5.3552,-5.3614,-5.37,-5.3782,-5.3826,-5.389,-5.3962,-5.4073,-5.4058,-5.4106,-5.4121,-5.4179,-5.4279,-5.4155,-5.4157,-5.4175,-5.4415,-5.4427,-5.4446,-5.4277,-5.4281,-5.4283,-5.4409,0,-5.3429,-5.3578,-5.3601,-5.3733,-5.3807,-5.3809,-5.3884,-5.3941,-5.3973,-5.4041,-5.4077,-5.4154,-5.4128,-5.4158,-5.4215,-5.4255,-5.4328,-5.4246,-5.4345,-5.4349,-5.4326,-5.4468,-5.4481,-5.4596,-5.4426,-5.4429,-5.4431,0,-5.3584,-5.3651,-5.379,-5.386,-5.3892,-5.3958,-5.4036,-5.4101,-5.4167,-5.4186,-5.4241,-5.425,-5.434,-5.4295,-5.442,-5.4364,-5.4407,-5.4433,-5.4438,-5.4446,-5.4394,-5.448,-5.4634,-5.4651,-5.4457,-5.4455,-5.4453,0,-5.3661,-5.3786,-5.3886,-5.392,-5.4005,-5.4051,-5.4089,-5.4152,-5.42,-5.4269,-5.4301,-5.438,-5.4423,-5.4485,-5.4516,-5.448,-5.4639,-5.4596,-5.4658,-5.4657,-5.4689,-5.4686,-5.4851,-5.4719,-5.4719,-5.4719,-5.4718,0,-5.3787,-5.3872,-5.3921,-5.3982,-5.4078,-5.4106,-5.42,-5.4237,-5.4293,-5.4362,-5.437,-5.4435,-5.4473,-5.4544,-5.4569,-5.4669,-5.4689,-5.4707,-5.4712,-5.4705,-5.4703,-5.4732,-5.4724,-5.4723,-5.4722,-5.4721,-5.4721,0,-5.3888,-5.3924,-5.4033,-5.4104,-5.4124,-5.4192,-5.4253,-5.4314,-5.4346,-5.4434,-5.4456,-5.4507,-5.4591,-5.4629,-5.4733,-5.475,-5.4864,-5.4864,-5.4841,-5.4842,-5.4901,-5.4895,-5.5089,-5.5116,-5.4968,-5.4969,-5.4971,0,-5.3965,-5.4031,-5.4109,-5.4156,-5.4194,-5.4269,-5.4319,-5.435,-5.4401,-5.4482,-5.4533,-5.4617,-5.4686,-5.4821,-5.4869,-5.4949,-5.495,-5.5013,-5.4962,-5.4954,-5.495,-5.4945,-5.4952,-5.5022,-5.5023,-5.5024,-5.5025,0,-5.4099,-5.4114,-5.4184,-5.4262,-5.432,-5.4383,-5.4445,-5.4483,-5.4524,-5.4581,-5.4667,-5.4721,-5.4827,-5.4911,-5.4995,-5.5035,-5.5038,-5.5041,-5.506,-5.5052,-5.5035,-5.5044,-5.4864,-5.5036,-5.5035,-5.5034,-5.5034,-5.5033,-5.419,-5.4248,-5.4312,-5.4391,-5.444,-5.4498,-5.4558,-5.4598,-5.467,-5.4758,-5.4773,-5.4865,-5.4931,-5.5044,-5.5088,-5.5161,-5.5145,-5.5172,-5.5179,-5.5184,-5.5187,-5.5025,-5.5176,-5.5176,-5.5176,-5.5176,-5.5176,0,-5.4323,-5.4365,-5.4437,-5.4522,-5.4585,-5.4581,-5.465,-5.4702,-5.4782,-5.4844,-5.4912,-5.5011,-5.5093,-5.5148,-5.5231,-5.528,-5.5283,-5.53,-5.5296,-5.5305,-5.5197,-5.5172,-5.5296,-5.5296,-5.5296,-5.5296,-5.5296,-5.5296,-5.4399,-5.4497,-5.452,-5.4644,-5.4686,-5.4775,-5.4814,-5.4868,-5.4917,-5.5027,-5.5095,-5.513,-5.519,-5.5278,-5.5354,-5.5368,-5.5398,-5.5416,-5.5429,-5.5326,-5.5313,-5.5301,-5.5278,-5.5422,-5.5422,-5.5532,-5.5533,-5.5533]},{"header":{"parameterUnit":"m.s-1","parameterCategory":1,"la1":30.2991,"la2":30.254,"lo1":-89.0895,"lo2":-89.0444,"dx":0.0017,"dy":0.0017,"nx":28,"ny":28,"refTime":"2022-12-29T09:00:00:Z","depth":0,"parameterNumber":3,"parameterNumberName":"V-component_of_WINDS"},"data":[0,0,0,0,0,0,0,0,0,0,0,0,0,0,0,0,0,0,0,0,0,0,0,0,0,0,0,0,0,0,0,0,0,0,0,0,0,0,0,0,0,0,0,0,0,0,0,0,0,0,0,0,0,0,0,0,0,0,2.6467,2.6468,0,2.6533,2.6533,2.6534,2.656,2.6559,2.6559,2.6559,2.6621,2.6623,2.6625,0,0,0,0,0,0,0,0,0,0,0,0,0,2.6361,2.6363,2.6467,2.6468,2.6468,2.6532,2.6533,2.6534,2.656,2.6559,2.6559,2.6559,2.6621,2.6623,2.6625,0,0,0,0,0,0,0,0,0,0,0,0,0,2.6415,2.6363,2.6467,2.6489,2.6492,2.6532,2.6533,2.6534,2.656,2.6559,2.6559,2.6559,2.662,2.6623,2.6625,2.6647,0,0,2.6634,2.6635,0,0,0,0,0,0,0,0,2.6412,2.6419,2.6485,2.6488,2.6491,2.6538,2.6519,2.6572,2.656,2.6534,2.6559,2.6559,2.6593,2.6598,2.6611,2.665,2.6653,2.6634,2.6635,2.6637,2.6637,0,0,0,0,0,0,0,2.6408,2.6416,2.6493,2.6486,2.6489,2.6495,2.6502,2.6529,2.6564,2.6536,2.6538,2.6546,2.6595,2.6608,2.6613,2.6654,2.6634,2.6636,2.6638,2.6639,2.6717,2.6718,0,0,0,0,0,0,2.6401,2.6413,2.6491,2.6495,2.645,2.6497,2.6505,2.6523,2.6564,2.657,2.6546,2.6547,2.6604,2.6609,2.6615,2.6646,2.6637,2.6639,2.6641,2.6717,2.6718,2.6718,0,0,0,0,0,0,2.6399,2.6408,2.6488,2.6454,2.6465,2.6499,2.6519,2.6524,2.6538,2.6571,2.6577,2.6553,2.6604,2.6611,2.664,2.6648,2.664,2.6643,2.6716,2.6717,2.6718,2.6706,0,0,0,0,0,0,2.6395,2.6407,2.6416,2.6454,2.6467,2.6513,2.6519,2.6526,2.6543,2.6545,2.658,2.6585,2.6604,2.6636,2.6643,2.6652,2.6645,2.6716,2.6717,2.6718,2.6706,2.6706,2.6707,0,0,0,0,0,2.6392,2.6408,2.6416,2.6425,2.6479,2.6513,2.652,2.6543,2.6543,2.6553,2.6575,2.6584,2.6646,2.6639,2.6647,2.6657,2.6715,2.6717,2.6718,2.6706,2.6706,2.6707,0,0,0,0,0,0,2.6366,2.6413,2.6423,2.6452,2.6479,2.6517,2.6529,2.6542,2.6567,2.6568,2.6593,2.6601,2.6628,2.6645,2.6636,2.6682,2.6682,2.6684,2.667,2.6671,2.6671,2.6667,2.6647,0,0,0,0,0,2.6364,2.6389,2.6428,2.645,2.6464,2.6494,2.651,2.6526,2.6554,2.6564,2.6588,2.6614,2.664,2.6656,2.6681,2.6708,2.6718,2.6719,2.672,2.672,2.6722,2.6741,2.6743,2.6721,2.6721,2.6721,0,0,2.6359,2.6388,2.6402,2.6446,2.6469,2.6494,2.6503,2.6529,2.6548,2.6568,2.6598,2.6617,2.6647,2.6677,2.669,2.6691,2.673,2.6721,2.6721,2.6723,2.6742,2.6744,2.6746,2.6722,2.6722,2.6722,0,0,2.6365,2.6389,2.6412,2.6435,2.6471,2.6491,2.6497,2.6535,2.6549,2.658,2.6597,2.6619,2.6662,2.6684,2.6701,2.6719,2.673,2.6726,2.6728,2.6746,2.6748,2.675,2.6759,2.6761,2.6728,2.6728,2.6728,0,2.6354,2.6395,2.6421,2.6447,2.6467,2.6489,2.6513,2.6533,2.6574,2.6587,2.6588,2.6645,2.6667,2.6703,2.6708,2.672,2.6728,2.6723,2.6746,2.6748,2.675,2.6759,2.6762,2.6728,2.6728,2.6728,2.6728,0,2.6381,2.6409,2.6423,2.6466,2.6487,2.6511,2.6541,2.6559,2.6574,2.6595,2.6628,2.6655,2.6688,2.6698,2.671,2.6737,2.6737,2.6741,2.6742,2.6751,2.676,2.6763,2.6727,2.6727,2.6727,2.6728,0,0,2.637,2.643,2.6435,2.6456,2.6499,2.652,2.6547,2.6581,2.6597,2.6625,2.6649,2.6686,2.6693,2.6712,2.6727,2.6743,2.676,2.6747,2.6748,2.675,2.6793,2.6791,2.6794,2.6767,2.6767,2.6768,2.6792,0,2.6383,2.6433,2.6459,2.6498,2.6525,2.6548,2.6572,2.66,2.6621,2.6647,2.6669,2.6697,2.6701,2.6714,2.673,2.6754,2.6769,2.6752,2.6789,2.679,2.6782,2.6798,2.6795,2.6815,2.6795,2.6795,2.6796,0,2.6403,2.6435,2.6477,2.6521,2.6533,2.6554,2.659,2.6614,2.6647,2.6661,2.6685,2.6702,2.6731,2.6729,2.6771,2.6759,2.6776,2.679,2.6791,2.6796,2.6794,2.6805,2.6822,2.6826,2.6801,2.68,2.68,0,2.6394,2.6447,2.648,2.6497,2.6547,2.6562,2.6583,2.6617,2.6637,2.6668,2.6682,2.6714,2.6733,2.6758,2.6783,2.6779,2.6823,2.6822,2.6836,2.6835,2.6844,2.6844,2.6866,2.6852,2.6852,2.6852,2.6852,0,2.6406,2.6431,2.6477,2.6498,2.6528,2.6558,2.6586,2.6609,2.664,2.6665,2.6686,2.6709,2.6741,2.6768,2.6788,2.682,2.6827,2.684,2.6846,2.6839,2.6838,2.6851,2.6851,2.6853,2.6853,2.6853,2.6853,0,2.6399,2.6431,2.647,2.6516,2.6529,2.6549,2.6588,2.6609,2.6633,2.6665,2.6674,2.671,2.6744,2.6772,2.6814,2.6828,2.6863,2.6868,2.6852,2.6855,2.6868,2.6867,2.6901,2.6908,2.6888,2.6888,2.6888,0,2.6405,2.6426,2.6477,2.6497,2.6519,2.655,2.6572,2.6603,2.6625,2.6668,2.6684,2.672,2.675,2.6803,2.6832,2.6866,2.6873,2.6883,2.6878,2.6873,2.6876,2.6875,2.6879,2.6883,2.6883,2.6883,2.6883,0,2.6413,2.6429,2.6462,2.6501,2.6528,2.6559,2.6591,2.6606,2.6643,2.6667,2.6703,2.6727,2.6774,2.6809,2.6847,2.6868,2.6883,2.6885,2.689,2.6885,2.6876,2.6883,2.6855,2.6884,2.6884,2.6884,2.6884,2.6884,2.6415,2.6436,2.6476,2.6512,2.6541,2.6571,2.6595,2.6623,2.6654,2.6697,2.6713,2.675,2.6786,2.6839,2.6861,2.6891,2.6893,2.6899,2.6901,2.6903,2.6904,2.6871,2.6898,2.6898,2.6898,2.6898,2.6898,0,2.6426,2.6454,2.6487,2.6533,2.6562,2.6576,2.6613,2.6636,2.667,2.6703,2.6734,2.6778,2.6814,2.6848,2.6885,2.6903,2.6911,2.6912,2.6911,2.6917,2.6899,2.6892,2.6905,2.6905,2.6905,2.6905,2.6905,2.6905,2.6435,2.6473,2.6494,2.6547,2.6574,2.6614,2.6634,2.6663,2.669,2.6739,2.677,2.6793,2.6827,2.6868,2.6902,2.6911,2.6925,2.6925,2.6936,2.6918,2.6917,2.6916,2.691,2.6927,2.6927,2.6952,2.6952,2.6952]}]]